Location: ????????
(54.7005°N, 39.0130°E)
Time: 14:58:39
(UTC+00:00)

Daily predictions for brighter satellites

Satellite Brightness Start Highest point End
(mag) Time Altitude Azimuth Time Altitude Azimuth Time Altitude Azimuth
Cosmos 2228 Rocket 3.5 18:52:14 10° SSE 18:56:38 50° E 19:01:04 10° NNE
MetOp-A 4.2 18:51:57 10° SSE 18:57:09 75° ENE 19:02:25 10° NNW
RESURS DK-1 2.8 18:55:18 10° NW 18:59:18 54° WSW 19:03:16 10° SSE
SL-14 R/B 3.5 18:55:40 10° S 18:59:19 50° E 19:03:02 10° NNE
Okean O Rocket 4.4 18:59:08 10° WSW 19:00:49 12° W 19:02:30 10° WNW
USA 281 3.5 18:56:09 10° SE 19:02:37 64° NE 19:09:08 10° NNW
Cosmos 1850 Rocket 4.4 18:58:15 10° S 19:03:12 45° ESE 19:08:09 10° NE
Okean 1-7 4.4 19:00:47 10° SE 19:04:18 25° E 19:07:50 10° NNE
Cosmos 2237 Rocket 4.0 19:00:19 10° NNW 19:05:01 26° NNE 19:09:43 10° E
SPOT 3 Rocket 4.1 19:01:36 10° S 19:06:40 57° WSW 19:11:47 10° NNW
Cosmos 1346 Rocket 2.7 19:03:17 10° NNW 19:07:11 88° W 19:11:02 10° SSE
Terra 2.9 19:02:57 10° S 19:07:25 42° W 19:11:55 10° NNW
OPS 8737 4.0 19:05:44 10° NW 19:08:42 83° NE 19:11:42 10° SE
Timation 1 Rocket 4.5 19:03:06 10° SSW 19:08:53 56° ESE 19:14:43 10° NE
Cosmos 2315 Rocket 4.2 19:03:33 10° NNW 19:09:57 80° W 19:16:20 10° S
Cosmos 2333 4.3 19:05:59 10° NNW 19:11:48 88° ENE 19:17:36 10° SSE
BREEZE-M DEB (TANK) 4.3 19:09:57 10° SW 19:14:24 50° SSE 19:30:59 10° E
Cosmos 1758 3.9 19:17:36 10° NNW 19:21:25 53° W 19:25:14 10° S
Cosmos 1741 Rocket 4.1 19:17:07 10° S 19:22:18 59° ESE 19:27:32 10° NNE
ALOS 2 4.4 19:19:09 10° ESE 19:22:37 23° ENE 19:26:05 10° N
Cosmos 1242 Rocket 4.2 19:21:27 10° ESE 19:22:37 12° E 19:23:47 10° ENE
Cosmos 2322 Rocket 2.8 19:19:34 10° NW 19:25:02 50° WSW 19:30:30 10° S
COSMOS 2406 4.3 19:19:50 10° WSW 19:25:27 51° NW 19:31:03 10° NNE
Cosmos 968 Rocket 3.8 19:20:52 10° S 19:25:48 48° ESE 19:30:48 10° NE
Cosmos 1814 Rocket 4.1 19:21:37 10° NNW 19:26:56 83° WSW 19:32:10 10° SSE
USA 234 3.2 19:27:19 10° ENE 19:33:54 73° SSE 19:40:26 10° WSW
Cosmos 1356 Rocket 3.5 19:31:34 10° SSW 19:35:46 85° WNW 19:40:01 10° NNE
Kosmos-1783 4.1 19:34:03 10° WNW 19:37:14 74° SW 19:43:45 10° SE
Meteor 1-21 4.3 19:32:11 10° S 19:37:58 84° ESE 19:43:51 10° NNE
Cosmos 1703 Rocket 4.5 19:34:35 11° SSE 19:38:24 35° E 19:42:28 10° NNE
Cosmos 1862 Rocket 3.6 19:35:11 10° S 19:39:34 89° ESE 19:44:03 10° NNE
COSMOS 2428 3.0 19:40:19 10° NNW 19:46:00 65° NE 19:51:41 10° SE
Okean 2 3.6 19:43:37 11° S 19:47:16 54° E 19:51:13 10° NNE
Cosmos 2219 Rocket 2.4 19:46:58 10° NW 19:52:38 69° WSW 19:57:45 13° SSE
Cosmos 1455 1.9 19:49:23 10° N 19:52:54 88° ENE 19:55:51 14° SSE
Cosmos 1400 Rocket 4.3 19:49:54 10° SW 19:53:27 33° WNW 19:56:59 10° N
SL-4 R/B 2.0 19:51:07 10° W 19:54:58 55° S 19:59:05 10° ESE
Landsat 5 4.0 19:52:29 10° N 19:56:21 56° WNW 20:00:20 10° SSW
Cosmos 1707 Rocket 4.3 19:56:08 10° SSW 20:00:28 52° WNW 20:04:51 10° N
Orbus 7S? 3.4 19:58:07 10° W 20:01:41 59° N 20:04:21 10° ENE
ARIANE 5 R/B 2.7 20:01:59 13° S 20:05:46 70° WSW 20:10:07 10° NNW
ATLAS CENTAUR R/B 0.9 20:02:22 10° SW 20:05:51 68° SE 20:09:29 10° NE
Cosmos 1745 Rocket 4.4 20:00:45 12° SSE 20:06:19 52° E 20:12:27 10° NNE
SJ 16-02 1.3 20:03:13 10° SSW 20:07:31 79° ESE 20:11:53 10° NNE
Cosmos 1315 Rocket 2.8 20:04:39 11° S 20:08:26 83° ESE 20:12:27 10° NNE
Cosmos 1953 2.6 20:05:22 10° NNW 20:09:09 57° W 20:12:24 13° S
Okean 3 4.0 20:06:13 10° SSW 20:10:18 57° WNW 20:14:27 10° N
Nadezhda 1 Rocket 4.1 20:05:02 10° N 20:11:25 83° ENE 20:16:57 14° SSE
Meteor 1-4 Rocket 2.5 20:09:43 10° SSW 20:12:39 58° WNW 20:15:39 10° N
SL-27 R/B 2.8 20:11:22 10° SW 20:14:04 46° WNW 20:16:48 10° NNE
Aureole 3 4.2 20:10:20 10° SSW 20:14:15 55° WNW 20:19:10 10° N
Cosmos 2360 Rocket 3.5 20:11:04 10° NW 20:15:53 29° WSW 20:20:40 10° SSW
ATLAS 2AS CENTAUR R/B 3.6 20:12:50 10° WNW 20:18:52 34° WSW 20:24:08 13° S
GP-B 3.2 20:18:51 10° N 20:23:17 74° W 20:27:09 13° S
SL-16 R/B 4.4 20:21:27 10° WNW 20:24:14 14° W 20:27:01 10° SW
Cosmos 2333 Rocket 3.6 20:19:28 10° NW 20:24:17 28° WSW 20:29:04 10° SSW
H-2A R/B 2.6 20:23:15 15° S 20:26:43 73° WSW 20:31:00 10° NNW
Cosmos 1908 Rocket 4.3 20:26:13 10° NNW 20:30:22 44° W 20:34:00 13° SSW
Cosmos 1782 Rocket 3.6 20:28:41 10° NNW 20:33:01 73° W 20:36:24 16° S
SL-16 R/B 3.7 20:36:07 10° NNW 20:41:18 34° NE 20:46:27 10° ESE
Okean 1-7 3.9 20:37:10 10° SSW 20:41:21 47° WNW 20:45:34 10° N
Cosmos 1825 4.4 20:40:57 10° ESE 20:42:27 12° E 20:43:58 10° ENE
Cosmos 1833 4.5 20:37:17 10° SW 20:42:54 70° NW 20:48:33 10° NNE
USA 129 3.1 20:45:02 10° NE 20:45:39 14° NE 20:45:39 14° NE
USA 281 4.1 20:42:02 13° S 20:47:28 38° WSW 20:53:35 10° NW
Cosmos 2322 4.3 20:44:33 10° NW 20:49:58 46° WSW 20:54:15 16° S
Cosmos 2237 Rocket 2.3 20:44:17 10° NNW 20:50:00 78° NE 20:55:28 11° SE
BlueWalker 3 3.2 20:50:10 19° SSE 20:51:09 21° SE 20:54:00 10° E
Cosmos 2151 Rocket 4.3 20:47:04 10° N 20:51:20 45° ENE 20:55:00 13° SE
Meteor 1-24 Rocket 4.3 20:47:51 15° SSE 20:52:25 49° E 20:57:48 10° NNE
Cosmos 1408 2.0 20:50:38 21° S 20:52:28 75° E 20:55:28 10° NNE
Cosmos 405 Rocket 3.1 20:49:07 10° N 20:52:48 53° ENE 20:55:40 16° SSE
Cosmos 1300 Rocket 3.9 20:49:30 10° NNW 20:53:43 56° W 20:56:57 16° S
Cosmos 1242 Rocket 2.9 20:52:09 14° SW 20:54:19 41° WNW 20:56:59 10° N
H-2A R/B 3.2 20:51:57 10° NNE 20:55:46 30° E 20:58:35 15° SSE
EXPRESS MD2 3.7 20:55:59 10° WSW 20:56:56 18° SW 20:56:56 18° SW
Okean 2 Rocket 3.8 20:54:06 10° N 20:58:27 48° ENE 21:02:11 13° SE
ALOS 2 2.8 20:55:20 17° S 20:58:37 61° WSW 21:03:00 10° NNW
CZ-4C R/B 3.0 20:57:22 17° SSE 21:00:09 29° ESE 21:05:00 10° ENE
Cosmos 2227 Rocket 3.9 20:56:48 11° SE 21:00:27 20° E 21:04:25 10° NE
Cosmos 1980 3.7 20:57:10 10° NW 21:02:51 86° WSW 21:07:57 13° SSE
Cosmos 371 Rocket 3.8 20:59:56 17° S 21:03:19 46° ESE 21:07:57 10° NE
Cosmos 1709 Rocket 4.1 21:00:29 15° S 21:05:59 87° E 21:12:22 10° NNE
NOSS 0 Rocket 4.2 21:03:42 10° NW 21:09:48 57° WSW 21:14:46 16° S
Cosmos 1703 3.1 21:10:09 19° S 21:12:41 77° E 21:16:23 10° NNE
Cosmos 1674 Rocket 4.4 21:12:35 16° SSE 21:15:42 39° E 21:19:45 10° NNE
USA 234 3.5 21:10:28 10° ENE 21:17:01 76° N 21:23:33 10° W
Cosmos 1378 Rocket 4.1 21:14:45 17° SSE 21:17:51 47° E 21:22:04 10° NNE
Cosmos 2221 Rocket 4.5 21:15:27 15° SSE 21:18:41 39° E 21:22:50 10° NNE
Meteor 2-5 Rocket 3.9 21:15:20 16° S 21:20:09 75° E 21:26:00 10° NNE
Cosmos 2297 Rocket 2.7 21:16:08 16° S 21:20:15 44° ESE 21:25:36 10° NE
Sich 1 Rocket 3.7 21:16:04 10° N 21:20:30 73° ENE 21:23:55 16° SSE
GEOS 3 Rocket 4.4 21:17:11 10° ENE 21:21:51 33° ESE 21:25:09 17° S
Cosmos 2242 Rocket 3.9 21:20:05 15° SSW 21:23:48 66° WNW 21:28:23 10° N
Cosmos 773 Rocket 4.3 21:21:38 10° NW 21:26:38 54° WSW 21:30:28 17° S
BREEZE-M DEB (TANK) 3.3 21:18:14 10° W 21:27:32 46° SSW 21:30:42 10° SE
CENTAUR R/B 3.9 21:25:39 12° SSE 21:29:24 22° ESE 21:34:27 10° ENE
COSMOS 2428 3.8 21:25:01 10° NW 21:29:55 30° WSW 21:33:47 15° SSW
SL-4 R/B 2.7 21:29:43 10° W 21:33:24 33° SSW 21:37:15 10° SE
COSMOS 2455 2.9 21:29:10 14° SSW 21:34:26 66° SE 21:40:26 10° NE
Cosmos 2098 Rocket 4.3 21:28:00 10° NNW 21:34:29 66° W 21:39:49 16° S
Cosmos 1892 3.0 21:32:49 19° SSE 21:35:05 47° E 21:38:29 10° NNE
Cosmos 2219 Rocket 4.2 21:32:32 10° WNW 21:35:34 15° W 21:38:35 10° SW
Cosmos 1538 Rocket 4.4 21:31:58 10° NNW 21:37:08 62° ENE 21:42:19 10° SE
Cosmos 1503 Rocket 4.1 21:35:27 16° SSW 21:39:41 69° ESE 21:44:58 10° NNE
NOSS 8 (F) 4.2 21:37:17 13° SW 21:40:20 71° SE 21:43:18 10° NE
Cosmos 1777 Rocket 4.2 21:38:28 17° S 21:42:33 62° ESE 21:47:47 10° NNE
ATLAS CENTAUR R/B 3.1 21:40:38 10° W 21:43:48 29° NNW 21:47:06 10° NE
GENESIS II 4.2 21:41:24 10° SW 21:45:03 74° NW 21:48:42 10° NE
SJ 16-02 3.7 21:43:09 10° W 21:46:25 20° NW 21:49:43 10° N
PSLV R/B 3.8 21:47:52 10° N 21:52:05 61° WNW 21:55:30 15° SSW
Cosmos 332 Rocket 4.2 21:52:44 17° S 21:56:22 52° ESE 22:01:08 10° NE
Cosmos 2263 Rocket 3.9 21:52:26 10° SSE 21:56:27 21° ESE 22:00:29 10° NE
Cosmos 304 Rocket 3.8 21:52:46 15° SSW 21:56:47 83° WNW 22:01:36 10° NNE
Cosmos 2181 Rocket 4.4 21:53:46 10° NNW 21:59:47 53° W 22:04:45 15° SSW
Resurs 1-4 Rocket 4.3 21:57:21 10° NE 22:00:24 15° E 22:03:26 10° ESE
Okean 1 Rocket 3.1 21:58:18 10° NNW 22:02:38 70° W 22:06:00 16° S
Helios 1A Rocket 2.9 22:11:17 12° SSE 22:14:46 74° ENE 22:18:35 10° NNW
Cosmos 1825 2.1 22:13:44 18° SSW 22:16:09 65° WNW 22:19:35 10° N
Cosmos 2074 Rocket 4.1 22:14:24 15° SSW 22:19:44 78° WNW 22:26:00 10° N
Cosmos 1354 Rocket 4.1 22:15:41 14° SSW 22:20:22 81° WNW 22:25:43 10° NNE
Cosmos 1606 3.9 22:19:15 10° N 22:22:35 35° ENE 22:25:54 10° SE
SL-16 R/B 2.2 22:20:12 10° NW 22:25:54 71° WSW 22:31:33 10° SSE
BREEZE-M DEB (TANK) 2.2 22:25:38 10° W 22:27:27 22° SSW 22:27:46 21° S
BlueWalker 3 2.0 22:25:08 10° WSW 22:28:48 54° SSE 22:32:28 10° E
H-2A R/B 3.0 22:27:32 10° N 22:31:35 40° WNW 22:35:22 11° SW
Cosmos 1975 Rocket 3.7 22:28:30 12° SSE 22:32:20 50° E 22:36:36 10° NNE
Cosmos 2237 Rocket 3.5 22:29:01 10° NW 22:33:31 25° WSW 22:37:15 13° SSW
SL-19 R/B 3.8 22:36:50 10° NNE 22:40:01 65° ESE 22:42:13 16° S
Cosmos 1455 Rocket 3.2 22:36:53 10° NNW 22:41:18 66° W 22:45:15 13° S
Cosmos 1943 3.7 22:36:27 10° NNW 22:42:04 65° NE 22:47:39 10° SE
Cosmos 1328 4.1 22:39:39 15° SSW 22:42:48 57° WNW 22:46:38 10° N
Cosmos 1818 3.6 22:37:46 10° NW 22:43:18 84° SW 22:48:46 10° SE
Cosmos 2227 Rocket 2.2 22:38:36 13° SSW 22:43:44 87° ESE 22:49:28 10° NNE
Orbus 7S? 2.6 22:42:20 10° WNW 22:44:58 57° SSW 22:48:19 10° SE
Meteor 1-21 Rocket 4.3 22:42:07 13° SSW 22:47:21 89° ESE 22:53:05 10° NNE
CZ-4C R/B 2.3 22:43:04 10° WSW 22:47:57 73° NW 22:54:14 10° NE
Cosmos 1680 Rocket 3.7 22:42:55 10° NNW 22:48:10 77° ENE 22:53:22 10° SSE
BREEZE-M DEB (TANK) 4.4 22:45:55 10° WSW 22:49:19 52° SSE 22:59:18 10° E
Cosmos 1869 3.3 22:45:56 10° N 22:49:39 69° ENE 22:53:20 10° SSE
Cosmos 2112 Rocket 4.3 22:44:33 10° NNW 22:49:46 70° ENE 22:54:56 10° SE
Nadezhda 3 Rocket 4.5 22:44:22 10° NNW 22:50:22 47° W 22:55:52 12° SSW
MOZ.5/SAFIR/RUBIN 5/SL-8 3.8 22:49:26 10° S 22:54:05 75° WSW 22:58:44 10° NNW
CZ-2C R/B 3.0 22:49:42 10° SSE 22:54:57 68° ENE 23:00:20 10° NNW
Cosmos 2084 Rocket 3.3 22:51:58 11° SW 22:56:05 82° SE 23:00:11 10° NE
CZ-2D R/B 3.3 22:52:16 10° NNE 22:57:14 36° E 23:02:07 10° SSE
IDEFIX/ARIANE 42P 3.3 22:52:40 10° NNE 22:57:47 48° E 23:02:50 10° S
CZ-2C R/B 4.5 22:53:27 10° NNE 22:58:27 34° E 23:03:11 10° SSE
Cosmos 2218 Rocket 4.4 22:53:16 10° S 22:59:23 60° E 23:05:27 10° NNE
USA 234 3.4 22:53:23 10° E 22:59:57 81° NNE 23:06:31 10° WNW
GEOS 3 Rocket 3.8 22:55:01 10° NE 23:00:14 74° NW 23:05:21 10° WSW
Cosmos 2297 Rocket 3.0 22:58:52 10° WSW 23:04:19 47° NW 23:09:48 10° NNE
Cosmos 2219 3.3 22:59:15 12° SSW 23:04:29 75° ESE 23:10:07 10° NE
Cosmos 1025 Rocket 3.6 23:01:49 12° SW 23:05:41 47° WNW 23:09:53 10° N
Cosmos 2366 rocket 4.2 23:01:57 10° S 23:08:12 71° E 23:14:25 10° NNE
NPP 4.1 23:05:12 10° NNE 23:10:33 59° ESE 23:15:52 10° S
SL-4 R/B 4.0 23:09:47 10° WSW 23:11:21 12° SW 23:12:04 11° SSW
Meteor 2-1 Rocket 4.5 23:05:58 10° NNW 23:11:50 63° W 23:17:35 10° S
Cosmos 990 Rocket 4.2 23:08:39 11° SW 23:13:40 67° WNW 23:18:48 10° NNE
NOSS 3 (A) 4.3 23:12:25 11° WSW 23:13:46 36° NNW 23:15:22 10° NE
CENTAUR R/B 2.7 23:12:50 10° SW 23:18:48 79° SE 23:26:18 10° NE
ALOS 4.2 23:16:55 10° NE 23:20:38 23° E 23:24:18 10° SE
COSMOS 2455 3.9 23:15:00 10° WSW 23:20:43 43° NNW 23:26:30 10° NE
Aureole 1 Rocket 2.9 23:18:43 11° SSW 23:22:10 81° WNW 23:26:49 10° NNE
ATLAS CENTAUR R/B 4.0 23:19:52 10° NW 23:22:29 18° N 23:25:11 10° NE
SL-16 R/B 3.0 23:17:55 10° SE 23:24:05 66° ENE 23:30:16 10° NNW
ADEOS II 3.0 23:26:00 10° NNE 23:31:03 46° E 23:36:05 10° S
COBE Rocket 4.2 23:28:34 10° N 23:33:41 70° WNW 23:38:49 10° SSW
Cosmos 292 Rocket 3.9 23:29:16 10° SW 23:34:02 71° WNW 23:38:53 10° NNE
Meteor 1-27 4.3 23:32:12 10° NNW 23:38:06 84° WSW 23:43:54 10° S
Cosmos 2263 Rocket 2.2 23:34:05 10° SSW 23:39:41 88° NW 23:45:18 10° NNE
SL-8 Rocket 4.1 23:34:25 10° SSW 23:40:33 68° WNW 23:46:45 10° N
Resurs 1-4 Rocket 2.3 23:35:47 10° NNE 23:41:05 78° ESE 23:46:23 10° SSW
MSX 3.9 23:35:21 10° NNE 23:41:07 85° ESE 23:46:52 10° SSW
Cosmos 494 Rocket 4.1 23:41:40 10° NNW 23:46:56 89° WSW 23:52:11 10° SSE
Cosmos 372 Rocket 4.1 23:44:44 10° SSW 23:49:59 78° WNW 23:55:15 10° NNE
Cosmos 1461 3.2 23:47:10 10° SSW 23:51:00 50° SE 23:54:46 10° NE
ASTEX 1 3.7 23:47:01 10° SSE 23:51:51 72° E 23:56:44 10° N
Cosmos 1727 Rocket 4.1 23:45:32 10° NNW 23:51:51 74° W 23:58:11 10° S
Cosmos 1544 Rocket 4.4 23:48:29 10° NNW 23:52:33 36° W 23:56:35 10° SSW
